FREGAT R/B (45359 NORAD) Tracking and Keplerian Element Data

This shows tracking and keplerian element data for the satellite.

Feedback or suggestion? Click here.




ElementValue
Catalog45359
NameFREGAT R/B
Epoch Orbit1
Epoch Day77.61714874
Epoch Year2020
RAAN31.7271
Inclination64.7796
Eccentricity0.008397
Argument of Perigee124.0426
Mean Anonmoly104.7045
Mean Motion2.08953742
Decay Rate-6.3E-07
L11 45359U 20018B 20077.61714874 -.00000063 00000-0 00000+0 0 9990
L22 45359 64.7796 31.7271 0083970 124.0426 104.7045 2.08953742 16

Live tracking and technical data element details for FREGAT R/B (NORAD 45359). FREGAT R/B can be tracked NOW for your location showing map with azimuth and elevation plus other details from your city location.

Track the satellite on the map from your city or location and see movement details for azimuth, elevation, latitude, longitude, range, height, and movement on the map or in text.







IsCatalogInMostPopularTable: catalog: 45359, numindb: 3
Update: records affected: 1



GetName: 45359 FREGAT R/B

Hit Count: updated at: Tue, 07 Apr 2020 16:31:07 GMT